Waarnemingen

Advertentie
Mijn weer
Herstmonceux, Groot Brittannië (3882): temperatuur & dauwpunt: 12.02.2019 00:00:00 - 18.02.2019 00:00:00 (GMT)Herstmonceux, Groot Brittannië (3882): temperatuur -20cm & temperatuur -100cm: 12.02.2019 00:00:00 - 18.02.2019 00:00:00 (GMT)Herstmonceux, Groot Brittannië (3882): windsnelheid: 12.02.2019 00:00:00 - 18.02.2019 00:00:00 (GMT)Herstmonceux, Groot Brittannië (3882): windrichting: 12.02.2019 00:00:00 - 18.02.2019 00:00:00 (GMT)Herstmonceux, Groot Brittannië (3882): luchtdruk: 12.02.2019 00:00:00 - 18.02.2019 00:00:00 (GMT)Herstmonceux, Groot Brittannië (3882): zicht: 12.02.2019 00:00:00 - 18.02.2019 00:00:00 (GMT)Herstmonceux, Groot Brittannië (3882): Zonneschijnduur: 12.02.2019 00:00:00 - 18.02.2019 00:00:00 (GMT)Herstmonceux, Groot Brittannië (3882): neerslag: 12.02.2019 00:00:00 - 18.02.2019 00:00:00 (GMT)
Datum & Tijd tt [°C] td [°C] tt -20cm [°C] tt -100cm [°C] ff [km/u] ff [kn] dd ppp [hPa] vv [km] sd [min] rr [mm]
18.02.2019 00:00:00 10,4 8,3 - - 9 5 WZW 1017,2 13 - 0,0
17.02.2019 23:00:00 10,8 7,9 - - 13 7 ZW 1017,0 14 0 0,0
17.02.2019 22:00:00 10,9 7,7 - - 11 6 ZW 1016,8 15 0 0,0
17.02.2019 21:00:00 9,8 8,0 - - 5 3 ZZW 1016,9 11 0 0,0
17.02.2019 20:00:00 9,4 7,7 - - 11 6 ZW 1017,0 13 0 0,0
17.02.2019 19:00:00 8,7 6,9 - - 11 6 ZW 1017,1 15 0 0,0
17.02.2019 18:00:00 9,8 7,5 - - 13 7 ZW 1016,8 15 0 0,0
17.02.2019 17:00:00 10,5 7,7 - - 13 7 ZW 1016,4 17 0 0,0
17.02.2019 16:00:00 10,6 7,3 - - 16 9 ZW 1016,3 16 12 0,0
17.02.2019 15:00:00 12,0 7,2 - - 13 7 WZW 1016,2 14 60 0,0
17.02.2019 14:00:00 12,3 6,7 - - 9 5 WZW 1016,1 30 60 0,0
17.02.2019 13:00:00 11,9 6,3 - - 15 8 WZW 1016,5 21 60 0,0
17.02.2019 12:00:00 11,5 5,1 - - 18 10 ZW 1016,4 17 60 -
17.02.2019 11:00:00 11,1 5,3 - - 15 8 ZZW 1016,6 23 60 -
17.02.2019 10:00:00 9,5 6,8 - - 13 7 Z 1016,5 19 60 0,0
17.02.2019 09:00:00 7,2 7,1 6,0 7,2 8 4 Z 1016,8 13 12 0,0
17.02.2019 08:00:00 5,4 5,4 - - 5 3 Z 1017,1 11 0 0,0
17.02.2019 07:00:00 4,8 4,7 - - 4 2 ZZO 1017,3 4,7 0 0,0
17.02.2019 06:00:00 3,6 3,5 - - 8 4 O 1017,4 0,9 0 0,0
17.02.2019 05:00:00 5,1 5,0 - - 5 3 OZO 1018,0 2,6 0 0,0
17.02.2019 04:00:00 5,7 5,7 - - 8 4 ZZO 1018,5 4,6 0 0,0
17.02.2019 03:00:00 4,6 4,6 - - 5 3 ZZO 1019,4 1,9 0 0,2
17.02.2019 02:00:00 5,6 5,6 - - 4 2 Z 1020,1 3,1 0 0,0
17.02.2019 01:00:00 4,7 4,6 - - 4 2 OZO 1020,8 0,7 0 0,0
17.02.2019 00:00:00 3,6 3,5 - - 5 3 OZO 1021,3 0,2 - 0,0
16.02.2019 23:00:00 3,5 3,3 - - 8 4 O 1022,0 0,1 0 0,0
16.02.2019 22:00:00 3,5 3,1 - - 5 3 O 1022,4 0,1 0 0,0
16.02.2019 21:00:00 4,7 4,2 - - 4 2 OZO 1022,9 0,2 0 0,0
16.02.2019 20:00:00 6,2 5,6 - - 4 2 ZO 1023,1 1,8 0 0,0
16.02.2019 19:00:00 7,4 6,4 - - 4 2 ZZO 1023,4 2,7 0 0,0
16.02.2019 18:00:00 8,9 8,0 - - 4 2 Z 1023,4 6 0 0,0
16.02.2019 17:00:00 9,2 7,9 - - 9 5 ZW 1023,2 8 18 0,0
16.02.2019 16:00:00 10,3 8,5 - - 8 4 WZW 1023,4 10 0 0,0
16.02.2019 15:00:00 10,7 8,7 - - 15 8 ZW 1023,7 10 0 0,0
16.02.2019 14:00:00 11,0 9,5 - - 5 3 W 1024,1 11 0 0,0
16.02.2019 13:00:00 10,6 9,8 - - 11 6 ZW 1024,6 8 0 0,0
16.02.2019 12:00:00 10,0 9,9 - - 9 5 ZW 1025,1 7 0 0,0
16.02.2019 11:00:00 9,1 9,1 - - 8 4 ZZW 1025,2 3,2 0 0,0
16.02.2019 10:00:00 8,0 8,0 - - 5 3 ZZW 1024,9 2,9 0 0,0
16.02.2019 09:00:00 6,3 6,3 5,7 7,2 2 1 Z 1024,9 2,2 0 0,0
16.02.2019 08:00:00 3,6 3,5 - - 2 1 ZZO 1024,9 0,6 0 0,0
16.02.2019 07:00:00 5,4 5,3 - - 4 2 ZW 1024,2 1,3 0 0,0
16.02.2019 06:00:00 5,4 5,4 - - 8 4 ZW 1023,9 1,8 0 0,0
16.02.2019 05:00:00 4,9 4,8 - - 5 3 W 1023,6 3,2 0 0,0
16.02.2019 04:00:00 5,6 5,5 - - 9 5 ZW 1023,3 3,0 0 0,0
16.02.2019 03:00:00 5,3 5,3 - - 5 3 W 1023,9 4,3 0 0,0
16.02.2019 02:00:00 3,0 2,8 - - 5 3 NNO 1024,3 1,3 0 0,0
16.02.2019 01:00:00 4,4 4,3 - - 2 1 ZZO 1024,6 3,5 0 0,2
16.02.2019 00:00:00 3,9 3,8 - - 2 1 ZZO 1024,9 1,7 - 0,0
15.02.2019 23:00:00 3,6 3,5 - - 0 0 N 1025,1 1,0 0 0,0
15.02.2019 22:00:00 3,0 2,8 - - 2 1 ONO 1025,4 1,2 0 0,0
15.02.2019 21:00:00 2,9 2,5 - - 4 2 ONO 1025,4 0,5 0 0,0
15.02.2019 20:00:00 3,8 3,2 - - 4 2 O 1025,6 1,0 0 0,0
15.02.2019 19:00:00 5,2 4,6 - - 2 1 ZZO 1025,9 2,1 0 0,0
15.02.2019 18:00:00 5,9 4,5 - - 2 1 Z 1026,1 4,5 0 0,0
15.02.2019 17:00:00 8,1 5,2 - - 5 3 Z 1026,1 7 54 0,0
15.02.2019 16:00:00 10,6 5,7 - - 5 3 Z 1026,1 9 60 0,0
15.02.2019 15:00:00 11,7 6,3 - - 5 3 ZO 1026,5 10 60 0,0
15.02.2019 14:00:00 11,8 6,3 - - 8 4 ZZO 1027,0 13 60 0,0
15.02.2019 13:00:00 12,2 6,5 - - 8 4 ZZO 1027,6 11 60 0,0
15.02.2019 12:00:00 11,4 8,1 - - 5 3 Z 1028,2 9 60 0,0
15.02.2019 11:00:00 10,2 8,3 - - 8 4 Z 1028,5 8 60 0,0
15.02.2019 10:00:00 7,7 7,7 - - 8 4 ZZO 1028,7 5 60 0,0
15.02.2019 09:00:00 3,5 3,5 5,9 7,2 5 3 O 1029,1 0,1 6 0,0
15.02.2019 08:00:00 1,8 1,8 - - 5 3 O 1029,3 0,2 0 0,0
15.02.2019 07:00:00 2,0 1,9 - - 8 4 O 1029,1 0,1 0 0,0
15.02.2019 06:00:00 1,9 1,8 - - 5 3 ONO 1029,1 0,1 0 0,0
15.02.2019 05:00:00 2,8 2,7 - - 5 3 O 1029,1 1,0 0 0,0
15.02.2019 04:00:00 2,9 2,7 - - 5 3 ONO 1029,1 1,1 0 0,2
15.02.2019 03:00:00 2,8 2,6 - - 5 3 ONO 1029,7 0,9 0 0,0
15.02.2019 02:00:00 2,6 2,4 - - 5 3 O 1030,1 1,7 0 0,0
15.02.2019 01:00:00 3,3 3,0 - - 5 3 O 1030,4 1,8 0 0,0
15.02.2019 00:00:00 3,8 3,6 - - 8 4 OZO 1030,6 3,7 - 0,0
14.02.2019 23:00:00 3,6 3,1 - - 8 4 O 1030,7 3,4 0 0,0
14.02.2019 22:00:00 3,7 3,1 - - 8 4 O 1030,8 6 0 0,0
14.02.2019 21:00:00 3,4 2,4 - - 8 4 O 1030,7 7 0 0,0
14.02.2019 20:00:00 3,6 2,7 - - 5 3 ONO 1030,9 7 0 0,0
14.02.2019 19:00:00 4,2 3,0 - - 5 3 O 1031,3 8 0 0,0
14.02.2019 18:00:00 5,3 3,2 - - 5 3 O 1031,4 8 0 0,0
14.02.2019 17:00:00 7,7 3,8 - - 5 3 ZO 1031,3 10 54 0,0
14.02.2019 16:00:00 10,0 3,3 - - 8 4 Z 1031,3 23 60 0,0
14.02.2019 15:00:00 11,5 4,7 - - 8 4 ZO 1031,5 22 60 0,0
14.02.2019 14:00:00 11,7 5,3 - - 9 5 ZO 1032,3 24 60 0,0
14.02.2019 13:00:00 11,2 6,0 - - 8 4 ZZO 1033,0 15 60 0,0
14.02.2019 12:00:00 10,6 6,3 - - 9 5 ZZO 1033,5 20 60 0,0
14.02.2019 11:00:00 8,7 7,2 - - 9 5 Z 1033,7 11 54 0,0
14.02.2019 10:00:00 5,7 5,7 - - 2 1 O 1033,5 7 60 0,0
14.02.2019 09:00:00 3,6 3,6 6,2 7,2 4 2 O 1033,5 2,5 0 0,0
14.02.2019 08:00:00 0,8 0,7 - - 4 2 ZO 1033,4 3,1 0 0,0
14.02.2019 07:00:00 1,4 1,3 - - 8 4 O 1033,4 1,5 0 0,0
14.02.2019 06:00:00 0,7 0,6 - - 5 3 ONO 1033,5 1,5 0 0,0
14.02.2019 05:00:00 0,5 0,2 - - 5 3 O 1033,4 1,2 0 0,0
14.02.2019 04:00:00 1,6 1,4 - - 4 2 N 1033,3 1,4 0 0,0
14.02.2019 03:00:00 2,5 2,4 - - 5 3 Z 1033,4 5 0 0,0
14.02.2019 02:00:00 3,1 3,0 - - 5 3 Z 1033,4 4,1 0 0,2
14.02.2019 01:00:00 2,7 2,4 - - 2 1 ZZW 1033,5 3,6 0 0,0
14.02.2019 00:00:00 3,2 3,0 - - 4 2 ZZO 1033,8 5 - 0,0
13.02.2019 23:00:00 3,1 2,7 - - 2 1 ZZO 1033,7 3,0 0 0,0
13.02.2019 22:00:00 3,8 3,4 - - 4 2 Z 1033,8 7 0 0,0
13.02.2019 21:00:00 3,9 3,4 - - 4 2 OZO 1033,8 6 0 0,0
13.02.2019 20:00:00 4,7 4,2 - - 5 3 Z 1033,8 11 0 0,0
13.02.2019 19:00:00 4,4 3,2 - - 4 2 OZO 1034,1 9 0 0,0
13.02.2019 18:00:00 5,5 3,8 - - 5 3 ZZW 1033,9 15 0 0,0
13.02.2019 17:00:00 7,0 4,1 - - 5 3 ZW 1033,8 27 42 0,0
13.02.2019 16:00:00 8,8 4,4 - - 15 8 ZW 1033,5 23 60 0,0
13.02.2019 15:00:00 9,4 5,5 - - 15 8 ZW 1033,7 19 60 0,0
13.02.2019 14:00:00 9,8 6,5 - - 13 7 ZW 1034,2 15 54 0,0
13.02.2019 13:00:00 9,3 6,6 - - 13 7 ZW 1034,3 17 42 0,0
13.02.2019 12:00:00 9,5 7,5 - - 13 7 ZW 1034,6 12 6 0,0
13.02.2019 11:00:00 8,5 8,0 - - 13 7 ZW 1035,0 12 0 0,0
13.02.2019 10:00:00 7,4 7,4 - - 8 4 ZW 1034,7 7 0 0,0
13.02.2019 09:00:00 6,0 5,9 6,4 7,2 8 4 ZZW 1034,7 4,3 0 0,0
13.02.2019 08:00:00 2,3 2,1 - - 4 2 Z 1034,8 2,3 0 0,0
13.02.2019 07:00:00 2,6 2,5 - - 5 3 Z 1034,5 4,1 0 0,0
13.02.2019 06:00:00 2,9 2,9 - - 2 1 Z 1034,4 3,1 0 0,0
13.02.2019 05:00:00 3,1 2,9 - - 4 2 Z 1034,6 3,6 0 0,0
13.02.2019 04:00:00 3,6 3,3 - - 2 1 ZZO 1034,8 0,2 0 0,0
13.02.2019 03:00:00 4,2 3,9 - - 2 1 ZZW 1034,8 0,1 0 0,0
13.02.2019 02:00:00 5,0 4,6 - - 2 1 ZZW 1035,1 0,1 0 0,0
13.02.2019 01:00:00 6,4 6,0 - - 5 3 ZW 1035,1 4,3 0 0,0
13.02.2019 00:00:00 7,2 6,9 - - 8 4 WZW 1035,0 7 - 0,0
12.02.2019 23:00:00 7,1 6,9 - - 9 5 ZW 1034,8 8 0 0,0
12.02.2019 22:00:00 6,7 6,5 - - 8 4 WZW 1035,0 4,3 0 0,0
12.02.2019 21:00:00 6,8 6,5 - - 8 4 ZW 1034,8 5 0 0,0
12.02.2019 20:00:00 6,9 6,5 - - 8 4 ZW 1034,9 5 0 0,0
12.02.2019 19:00:00 7,3 6,7 - - 8 4 WZW 1034,8 6 0 0,0
12.02.2019 18:00:00 7,8 7,0 - - 9 5 WZW 1034,7 8 0 0,0
12.02.2019 17:00:00 8,1 6,8 - - 9 5 WZW 1034,1 12 0 0,0
12.02.2019 16:00:00 8,8 6,4 - - 11 6 WZW 1034,1 18 12 0,0
12.02.2019 15:00:00 9,2 6,2 - - 13 7 WZW 1034,1 24 18 0,0
12.02.2019 14:00:00 9,7 6,1 - - 13 7 WZW 1033,9 29 24 0,0
12.02.2019 13:00:00 9,9 5,2 - - 13 7 WZW 1034,0 35 36 0,0
12.02.2019 12:00:00 9,5 4,5 - - 13 7 WZW 1034,5 30 42 0,0
12.02.2019 11:00:00 8,8 4,5 - - 13 7 WZW 1034,7 26 36 0,0
12.02.2019 10:00:00 7,3 5,6 - - 8 4 WZW 1034,5 20 54 0,0
12.02.2019 09:00:00 4,1 4,1 6,2 7,2 4 2 W 1034,5 18 0 0,0
12.02.2019 08:00:00 1,1 0,7 - - 0 0 N 1034,1 9 0 0,0
12.02.2019 07:00:00 0,9 0,1 - - 5 3 ONO 1033,7 7 0 0,0
12.02.2019 06:00:00 1,6 0,8 - - 2 1 WNW 1033,5 15 0 0,0
12.02.2019 05:00:00 1,8 0,4 - - 4 2 ONO 1033,4 14 0 0,0
12.02.2019 04:00:00 2,6 1,3 - - 2 1 O 1033,7 25 0 0,0
12.02.2019 03:00:00 3,2 1,6 - - 2 1 W 1033,7 15 0 0,0
12.02.2019 02:00:00 2,3 1,5 - - 0 0 N 1033,9 15 0 0,0
12.02.2019 01:00:00 3,1 1,0 - - 4 2 O 1033,6 21 0 0,0
12.02.2019 00:00:00 4,9 1,1 - - 2 1 W 1033,5 40 - 0,0

tt = temperatuur
td = dauwpunt
tt -20cm = temperatuur -20cm
tt -100cm = temperatuur -100cm
ff = windsnelheid
dd = windrichting
ppp = luchtdruk
vv = zicht
sd = Zonneschijnduur
rr = neerslag

Weerstations in de omgeving